Shelton, WA

8:57 AM PDT on May 25, 2017 (GMT -0700)
Sanderson

Weather History for KSHN - March, 2013

Change the Weather History Date:

Saturday, March 9, 2013

  Actual Average Record
Temperature  
Mean Temperature 40 °F -  
Max Temperature 55 °F 52 °F 65 °F (1981)
Min Temperature 24 °F 35 °F 24 °F (2013)
Degree Days  
Heating Degree Days 26    
Moisture  
Dew Point 31 °F    
Average Humidity 82    
Maximum Humidity 100    
Minimum Humidity 42    
Precipitation  
Precipitation 0.00 in - - ()
Sea Level Pressure  
Sea Level Pressure 30.37 in    
Wind  
Wind Speed 2 mph (SSW)    
Max Wind Speed 13 mph    
Max Gust Speed -    
Visibility 10 miles    
Events      
Averages and records for this station are not official NWS values.
T = Trace of Precipitation, MM = Missing Value Source: NWS Daily Summary

Daily Weather History Graph

Daily Weather History Graph

Search for Another Location

Airport or City:

Trip Planner

Search our weather history database for the weather conditions in past years. The results will help you decide how hot, cold, wet, or windy it might be!

Date:

Astronomy

Mar. 09, 2013 Rise Set
Actual Time 6:36 AM PST 6:10 PM PST
Civil Twilight 6:06 AM PST 6:40 PM PST
Nautical Twilight 5:30 AM PST 7:16 PM PST
Astronomical Twilight 4:54 AM PST 7:52 PM PST
Moon 5:10 AM PST (3/9) 4:13 PM PST (3/9)
Length of Visible Light 12h 34m
Length of Day
11h 33m
Waning Crescent, 5% of the Moon is Illuminated
Mar 9
Waning Crescent
Mar 11
New
Mar 19
First Quarter
Mar 27
Full
Apr 2
Last Quarter

Hourly Weather History & Observations

Time (PST) Temp. Windchill Dew Point Humidity Pressure Visibility Wind Dir Wind Speed Gust Speed Precip Events Conditions
12:20 AM 32.0 °F - 30.2 °F 93% 30.23 in 10.0 mi Calm Calm - N/A   Partly Cloudy
12:53 AM 30.0 °F - 28.9 °F 96% 30.26 in 10.0 mi Calm Calm - N/A   Clear
1:53 AM 30.0 °F - 28.9 °F 96% 30.27 in 10.0 mi Calm Calm - N/A   Clear
2:01 AM 30.2 °F - 28.4 °F 93% 30.26 in 10.0 mi Calm Calm - N/A   Scattered Clouds
2:38 AM 28.4 °F - 28.4 °F 100% 30.27 in 10.0 mi Calm Calm - N/A   Mostly Cloudy
2:53 AM 28.9 °F - 28.0 °F 96% 30.28 in 10.0 mi Calm Calm - N/A   Overcast
3:30 AM 28.4 °F - 28.4 °F 100% 30.27 in 10.0 mi Calm Calm - N/A   Partly Cloudy
3:53 AM 28.0 °F - 27.0 °F 96% 30.29 in 10.0 mi Calm Calm - N/A   Scattered Clouds
4:01 AM 28.4 °F - 26.6 °F 93% 30.28 in 10.0 mi Calm Calm - N/A   Mostly Cloudy
4:09 AM 28.4 °F - 26.6 °F 93% 30.28 in 10.0 mi Calm Calm - N/A   Scattered Clouds
4:53 AM 28.0 °F - 26.1 °F 92% 30.31 in 10.0 mi Calm Calm - N/A   Partly Cloudy
5:53 AM 26.1 °F - 25.0 °F 96% 30.34 in 9.0 mi Calm Calm - N/A   Clear
6:39 AM 24.8 °F - 24.8 °F 100% 30.34 in 10.0 mi Calm Calm - N/A   Partly Cloudy
6:53 AM 28.0 °F - 27.0 °F 96% 30.36 in 10.0 mi Calm Calm - N/A   Mostly Cloudy
7:53 AM 30.9 °F - 30.0 °F 96% 30.38 in 10.0 mi Calm Calm - N/A   Scattered Clouds
8:53 AM 39.0 °F - 37.0 °F 93% 30.40 in 10.0 mi Calm Calm - N/A   Clear
9:53 AM 44.1 °F - 37.9 °F 79% 30.42 in 10.0 mi Calm Calm - N/A   Clear
10:53 AM 46.9 °F - 37.9 °F 71% 30.43 in 10.0 mi East 4.6 mph - N/A   Clear
11:53 AM 50.0 °F - 39.9 °F 68% 30.43 in 10.0 mi SE 6.9 mph - N/A   Clear
12:53 PM 53.1 °F - 39.9 °F 61% 30.43 in 10.0 mi East 6.9 mph - N/A   Clear
1:53 PM 55.0 °F - 34.0 °F 45% 30.42 in 10.0 mi SSW 10.4 mph - N/A   Clear
2:53 PM 55.0 °F - 32.0 °F 42% 30.42 in 10.0 mi SSW 11.5 mph - N/A   Clear
3:53 PM 55.0 °F - 33.1 °F 43% 30.42 in 10.0 mi SW 11.5 mph - N/A   Clear
4:53 PM 53.1 °F - 32.0 °F 45% 30.43 in 10.0 mi SW 12.7 mph - N/A   Clear
5:53 PM 48.9 °F - 32.0 °F 52% 30.45 in 10.0 mi WSW 10.4 mph - N/A   Clear
6:53 PM 44.1 °F 39.0 °F 35.1 °F 71% 30.47 in 10.0 mi SW 9.2 mph - N/A   Clear
7:53 PM 41.0 °F 37.1 °F 35.1 °F 79% 30.48 in 10.0 mi SSW 5.8 mph - N/A   Clear
8:53 PM 36.0 °F 30.3 °F 33.1 °F 89% 30.49 in 10.0 mi West 6.9 mph - N/A   Clear
9:53 PM 37.0 °F 33.3 °F 34.0 °F 89% 30.49 in 10.0 mi West 4.6 mph - N/A   Clear
10:53 PM 36.0 °F - 34.0 °F 93% 30.50 in 10.0 mi Calm Calm - N/A   Clear
11:53 PM 35.1 °F 32.2 °F 34.0 °F 96% 30.49 in 10.0 mi NNW 3.5 mph - N/A   Clear